User: anonymous   Login
Location: Gipe Farm
(40.9466°N, 95.5370°W)
Time: 10:20:38
(UTC-06:00)
Language:

Cosmos 2082 Rocket - Orbit

View from above orbital plane
View from above orbital plane
View from above satellite
View from above satellite

Ground track
Ground track

The orbit data is extracted from the following two-line orbital elements,

1 20625U 90046B   17054.22063447 -.00000168  00000-0 -62384-4 0  9993
2 20625  71.0007  28.3280 0016874 279.1875  80.7338 14.14615257381715
Epoch (UTC): 23 February 2017 05:17:42
Eccentricity: 0.0016874
inclination: 71.0007°
perigee height: 831 km
apogee height: 856 km
right ascension of ascending node: 28.3280°
argument of perigee: 279.1875°
revolutions per day: 14.14615257
mean anomaly at epoch: 80.7338°
orbit number at epoch: 38171

The dashed part of the orbit path shows where the satellite is in the earth's shadow,  

DLR